Home > Weather > Choloma > Past weeks

Flag for Honduras Weather for the Past 2 Weeks in Choloma, Honduras

Now
64 °F

More clouds than sun.


Feels Like: 64 °F
Forecast: 63 / 66 °F
Wind: 5 mph from Northeast

Location: La Mesa San Pedro Sula

Current Time: Feb 10, 2016 at 7:20:29 AM

Latest Report: Feb 10, 2016 at 7:00 AM


Visibility: 4 mi

Pressure: 30.27 "Hg

Humidity: 100%

Dew point: 64 °F

Location of CholomaLocation

Historic Weather in Choloma — Graph

°F

Choloma Temperature Yesterday

Maximum temperature yesterday: 68 °F (at 12:00 AM)
Minimum temperature yesterday: 64 °F (at 11:00 PM)
Average temperature yesterday: 67 °F

High & Low Weather Summary for the Past Weeks

 TemperatureHumidityPressure
High97 °F (Feb 3, 3:00 PM)100% (Jan 26, 6:00 AM)30.27 "Hg (Jan 26, 6:00 AM)
Low64 °F (Jan 26, 6:00 AM)36% (Feb 2, 3:00 PM)29.71 "Hg (Feb 2, 4:00 PM)
Average74 °F90%30.01 "Hg
* Reported Jan 26 6:00 AM — Feb 10 6:00 AM, Choloma, Weather by CustomWeather, © 2016

Note: Actual official high and low records may vary slightly from our data, if they occured in-between our weather recording intervals... More about our weather records

Advertising

Choloma Weather History for the Previous 24 Hours

 ConditionsComfort  
Time TempWeatherWind HumidityBarometerVisibility
6:00 AM
Wed, Feb 10
64 °FPassing clouds.No wind100%30.24 "HgN/A
5:00 AM64 °FPartly cloudy.No wind100%30.21 "HgN/A
4:00 AM64 °FPartly cloudy.No wind100%30.21 "HgN/A
3:00 AM64 °FPartly cloudy.No wind100%30.21 "HgN/A
2:00 AM64 °FPartly cloudy.No wind100%30.21 "HgN/A
12:00 AM64 °FPartly cloudy.No wind100%30.27 "HgN/A
11:00 PM
Tue, Feb 9
64 °FPartly cloudy.No wind100%30.27 "HgN/A
10:00 PM66 °FPartly cloudy.2 mph94%30.27 "HgN/A
9:00 PM66 °FMostly cloudy.No wind94%30.27 "HgN/A
8:00 PM66 °FMostly cloudy.3 mph94%30.27 "HgN/A
7:00 PM66 °FOvercast.5 mph94%30.24 "HgN/A
6:00 PM66 °FOvercast.5 mph94%30.21 "HgN/A
5:00 PM66 °FOvercast.5 mph94%30.21 "HgN/A
4:00 PM66 °FOvercast.6 mph94%30.18 "HgN/A
3:00 PM66 °FOvercast.5 mph94%30.21 "HgN/A
2:00 PM66 °FOvercast.8 mph94%30.21 "HgN/A
1:00 PM68 °FOvercast.8 mph88%30.21 "HgN/A
12:00 PM68 °FOvercast.7 mph88%30.24 "HgN/A
11:00 AM68 °FOvercast.7 mph94%30.27 "HgN/A
10:00 AM68 °FPartly sunny.6 mph100%30.27 "HgN/A
9:00 AM68 °FPartly sunny.No wind94%30.27 "HgN/A
8:00 AM68 °FPartly sunny.5 mph94%30.24 "HgN/A
7:00 AM66 °FPartly sunny.5 mph100%30.21 "HgN/A
Weather by CustomWeather, © 2016

See weather overviewHow to use our weather pages